Home   Weather   Chicago   Past weeks

Flag for USA Past Weather in Chicago, Illinois, USA — Yesterday and Last 2 Weeks

50 °F


Feels Like: 46 °F
Forecast: 46 / 52 °F
Wind: 9 mph from North

Location: Chicago Midway Airport

Current Time: Oct 27, 2016 at 6:08:06 AM

Latest Report: Oct 27, 2016 at 4:53 AM

Visibility: 10 mi

Pressure: 30.07 "Hg

Humidity: 89%

Dew Point: 47 °F

Location of ChicagoLocation

Past Weather in Chicago — Graph


Chicago Temperature Yesterday

Maximum temperature yesterday: 51 °F (at 12:53 AM)
Minimum temperature yesterday: 46 °F (at 5:53 AM)
Average temperature yesterday: 48 °F

High & Low Weather Summary for the Past Weeks

High84 °F (Oct 17, 3:53 PM)94% (Oct 16, 6:53 AM)30.47 "Hg (Oct 16, 6:53 AM)
Low40 °F (Oct 22, 12:53 AM)37% (Oct 23, 5:53 PM)29.45 "Hg (Oct 17, 6:53 PM)
Average58 °F67%30.06 "Hg
* Reported Oct 12 4:53 AM — Oct 27 4:53 AM, Chicago, Weather by CustomWeather, © 2016

Note: Actual official high and low records may vary slightly from our data, if they occured in-between our weather recording intervals... More about our weather records


Chicago Weather History for the Previous 24 Hours

Scroll right to see more
Time TempWeatherWind HumidityBarometerVisibility
4:53 AM
Thu, Oct 27
50 °FOvercast.9 mph89%30.07 "Hg10 mi
3:53 AM51 °FFog.8 mph89%30.05 "Hg4 mi
2:53 AM50 °FFog.8 mph93%30.03 "Hg1 mi
1:53 AM50 °FFog.12 mph89%30.02 "Hg2 mi
12:53 AM50 °FFog.12 mph93%30.00 "Hg3 mi
11:53 PM
Wed, Oct 26
50 °FFog.7 mph93%29.99 "Hg1 mi
10:53 PM50 °FDrizzle. Fog.5 mph93%29.98 "Hg1 mi
9:53 PM50 °FDrizzle. Fog.No wind93%29.98 "Hg1 mi
8:53 PM50 °FDrizzle. Fog.7 mph89%29.97 "Hg2 mi
7:53 PM50 °FDrizzle. Fog.7 mph89%29.99 "Hg2 mi
6:53 PM50 °FDrizzle. Fog.9 mph89%30.00 "Hg1 mi
5:53 PM49 °FDrizzle. Fog.9 mph90%30.01 "Hg4 mi
5:03 PM49 °FRain. Fog.9 mph86%30.02 "Hg3 mi
4:53 PM49 °FLight rain. Fog.8 mph86%30.03 "Hg3 mi
3:53 PM49 °FLight rain. Fog.No wind84%30.04 "Hg4 mi
2:53 PM48 °FLight rain. More clouds than sun.7 mph83%30.03 "Hg10 mi
1:53 PM48 °FLight rain. Overcast.13 mph83%30.05 "Hg10 mi
12:53 PM48 °FOvercast.14 mph80%30.06 "Hg10 mi
11:53 AM46 °FRain. Fog.13 mph83%30.12 "Hg6 mi
10:53 AM47 °FHeavy rain. Fog.14 mph77%30.18 "Hg4 mi
9:53 AM47 °FOvercast.22 mph71%30.17 "Hg10 mi
8:53 AM47 °FMostly cloudy.20 mph77%30.22 "Hg10 mi
7:53 AM46 °FMostly cloudy.21 mph86%30.21 "Hg10 mi
6:53 AM46 °FLight rain. Mostly cloudy.20 mph86%30.25 "Hg10 mi
Weather by CustomWeather, © 2016

See weather overviewHow to use our weather pages